EJU48UC LICJ-LIRN

Flight info

Callsign EJU48UC
Flight time 0h 32m
Altitude 28000
Route ROSAS DCT AMANO DCT DELER DCT SOR
Aircraft A320/M-SDE3FGHIRWY/LB1

Departure

Time 2026-05-07 15:53
Airport Falcone–Borsellino Airport (LICJ)

Arrival

Time 2026-05-07 16:26
Airport Naples International Airport (LIRN)
Time Latitude Longitude Altitude Speed Heading
2026-05-07 15:24 38.18388 13.10408 53 ft 0 kts 67°
2026-05-07 15:46 38.18389 13.10408 53 ft 1 kts 67°
2026-05-07 15:47 38.18398 13.10437 51 ft 5 kts 66°
2026-05-07 15:47 38.18410 13.10471 50 ft 4 kts 66°
2026-05-07 15:47 38.18413 13.10496 53 ft 2 kts 114°
2026-05-07 15:47 38.18377 13.10490 53 ft 11 kts 189°
2026-05-07 15:48 38.18312 13.10422 53 ft 13 kts 245°
2026-05-07 15:48 38.18251 13.10366 53 ft 9 kts 180°
2026-05-07 15:48 38.18202 13.10335 53 ft 8 kts 238°
2026-05-07 15:48 38.18168 13.10230 52 ft 18 kts 248°
2026-05-07 15:49 38.18114 13.10069 53 ft 21 kts 247°
2026-05-07 15:49 38.18055 13.09893 50 ft 22 kts 246°
2026-05-07 15:49 38.17991 13.09704 53 ft 24 kts 247°
2026-05-07 15:49 38.17925 13.09505 52 ft 25 kts 247°
2026-05-07 15:50 38.17854 13.09296 51 ft 26 kts 246°
2026-05-07 15:50 38.17783 13.09083 51 ft 23 kts 247°
2026-05-07 15:50 38.17725 13.08937 53 ft 17 kts 225°
2026-05-07 15:50 38.17663 13.08877 52 ft 9 kts 217°
2026-05-07 15:51 38.17619 13.08835 53 ft 7 kts 217°
2026-05-07 15:51 38.17581 13.08799 53 ft 8 kts 217°
2026-05-07 15:51 38.17541 13.08762 53 ft 7 kts 216°
2026-05-07 15:51 38.17491 13.08763 52 ft 9 kts 142°
2026-05-07 15:52 38.17490 13.08827 53 ft 3 kts 66°
2026-05-07 15:52 38.17499 13.08851 53 ft 6 kts 66°
2026-05-07 15:52 38.17578 13.09084 53 ft 64 kts 67°
2026-05-07 15:52 38.17846 13.09886 53 ft 130 kts 67°
2026-05-07 15:53 38.18271 13.11143 171 ft 169 kts 65°
2026-05-07 15:53 38.18721 13.12481 992 ft 163 kts 66°
2026-05-07 15:53 38.19168 13.13833 1531 ft 180 kts 66°
2026-05-07 15:53 38.19704 13.15387 1870 ft 205 kts 66°
2026-05-07 15:54 38.20320 13.17156 2270 ft 232 kts 66°
2026-05-07 15:54 38.21097 13.19070 2774 ft 256 kts 51°
2026-05-07 15:54 38.22538 13.20462 3549 ft 268 kts 25°
2026-05-07 15:54 38.24275 13.21375 4493 ft 272 kts 23°
2026-05-07 15:55 38.26045 13.22287 5413 ft 278 kts 22°
2026-05-07 15:55 38.27857 13.23232 6321 ft 283 kts 23°
2026-05-07 15:55 38.29694 13.24205 7196 ft 287 kts 22°
2026-05-07 15:55 38.31527 13.25190 8045 ft 293 kts 22°
2026-05-07 15:56 38.33419 13.26208 8915 ft 298 kts 21°
2026-05-07 15:56 38.35348 13.27242 9751 ft 304 kts 21°
2026-05-07 15:56 38.37315 13.28293 10531 ft 309 kts 22°
2026-05-07 15:56 38.39353 13.29383 10995 ft 329 kts 22°
2026-05-07 15:57 38.41530 13.30545 11449 ft 345 kts 21°
2026-05-07 15:57 38.43767 13.31739 12168 ft 352 kts 21°
2026-05-07 15:57 38.46041 13.32953 12936 ft 357 kts 21°
2026-05-07 15:57 38.48343 13.34185 13691 ft 361 kts 21°
2026-05-07 15:58 38.50674 13.35435 14351 ft 366 kts 21°
2026-05-07 15:58 38.53037 13.36700 14999 ft 370 kts 20°
2026-05-07 15:58 38.55432 13.37983 15638 ft 375 kts 20°
2026-05-07 15:58 38.57855 13.39278 16286 ft 379 kts 19°
2026-05-07 15:59 38.60303 13.40589 16963 ft 383 kts 19°
2026-05-07 15:59 38.62772 13.41917 17630 ft 387 kts 19°
2026-05-07 15:59 38.65266 13.43263 18259 ft 391 kts 19°
2026-05-07 15:59 38.67786 13.44624 18808 ft 395 kts 19°
2026-05-07 16:00 38.70334 13.45999 19362 ft 399 kts 18°
2026-05-07 16:00 38.72903 13.47380 19913 ft 403 kts 18°
2026-05-07 16:00 38.75500 13.48777 20466 ft 407 kts 18°
2026-05-07 16:00 38.78120 13.50189 20987 ft 410 kts 18°
2026-05-07 16:01 38.80762 13.51612 21561 ft 413 kts 18°
2026-05-07 16:01 38.83420 13.53049 22108 ft 416 kts 17°
2026-05-07 16:01 38.86071 13.54462 22630 ft 419 kts 16°
2026-05-07 16:01 38.88801 13.55787 23150 ft 421 kts 13°
2026-05-07 16:02 38.91572 13.57023 23618 ft 423 kts 12°
2026-05-07 16:02 38.94375 13.58218 24027 ft 426 kts 12°
2026-05-07 16:02 38.97210 13.59419 24427 ft 430 kts 12°
2026-05-07 16:02 39.00069 13.60647 24813 ft 435 kts 12°
2026-05-07 16:03 39.02942 13.61907 25218 ft 439 kts 13°
2026-05-07 16:03 39.05843 13.63202 25595 ft 443 kts 13°
2026-05-07 16:03 39.08761 13.64520 25959 ft 447 kts 13°
2026-05-07 16:03 39.11703 13.65858 26333 ft 450 kts 13°
2026-05-07 16:04 39.14668 13.67207 26700 ft 454 kts 13°
2026-05-07 16:04 39.17661 13.68566 27062 ft 458 kts 12°
2026-05-07 16:04 39.20682 13.69933 27417 ft 461 kts 12°
2026-05-07 16:04 39.23680 13.71285 27791 ft 463 kts 12°
2026-05-07 16:05 39.26702 13.72651 27876 ft 455 kts 12°
2026-05-07 16:05 39.29631 13.73988 27887 ft 442 kts 12°
2026-05-07 16:05 39.32578 13.75320 27893 ft 455 kts 12°
2026-05-07 16:05 39.35601 13.76677 27890 ft 461 kts 12°
2026-05-07 16:06 39.38637 13.78046 27895 ft 463 kts 12°
2026-05-07 16:06 39.41680 13.79425 27894 ft 463 kts 12°
2026-05-07 16:06 39.44722 13.80808 27903 ft 462 kts 13°
2026-05-07 16:06 39.47743 13.82189 27903 ft 459 kts 13°
2026-05-07 16:07 39.50753 13.83572 27904 ft 459 kts 13°
2026-05-07 16:07 39.53761 13.84957 27902 ft 459 kts 13°
2026-05-07 16:07 39.56768 13.86344 27892 ft 459 kts 13°
2026-05-07 16:07 39.59786 13.87734 27903 ft 461 kts 13°
2026-05-07 16:08 39.62809 13.89122 27902 ft 461 kts 13°
2026-05-07 16:08 39.65837 13.90509 27934 ft 461 kts 13°
2026-05-07 16:08 39.68856 13.91893 27934 ft 460 kts 13°
2026-05-07 16:08 39.71872 13.93276 27934 ft 459 kts 13°
2026-05-07 16:09 39.74845 13.94644 27930 ft 459 kts 13°
2026-05-07 16:09 39.77851 13.96029 27927 ft 458 kts 13°
2026-05-07 16:09 39.80857 13.97414 27932 ft 458 kts 13°
2026-05-07 16:09 39.83856 13.98798 27929 ft 457 kts 13°
2026-05-07 16:10 39.86855 14.00186 27924 ft 457 kts 13°
2026-05-07 16:10 39.89843 14.01571 27837 ft 453 kts 13°
2026-05-07 16:10 39.92775 14.02939 27574 ft 441 kts 14°
2026-05-07 16:10 39.95629 14.04276 27317 ft 430 kts 14°
2026-05-07 16:11 39.98412 14.05576 27057 ft 420 kts 13°
2026-05-07 16:11 40.01135 14.06843 26811 ft 411 kts 13°
2026-05-07 16:11 40.03813 14.08086 26562 ft 406 kts 13°
2026-05-07 16:11 40.06459 14.09311 26296 ft 401 kts 14°
2026-05-07 16:12 40.09080 14.10527 25837 ft 399 kts 14°
2026-05-07 16:12 40.11694 14.11741 25341 ft 398 kts 14°
2026-05-07 16:12 40.14295 14.12949 24852 ft 397 kts 14°
2026-05-07 16:12 40.16893 14.14157 24380 ft 395 kts 14°
2026-05-07 16:13 40.19481 14.15362 23907 ft 394 kts 14°
2026-05-07 16:13 40.22059 14.16561 23425 ft 393 kts 14°
2026-05-07 16:13 40.24633 14.17758 22907 ft 391 kts 15°
2026-05-07 16:13 40.27185 14.18949 22453 ft 388 kts 15°
2026-05-07 16:14 40.29720 14.20136 21996 ft 385 kts 15°
2026-05-07 16:14 40.32234 14.21316 21548 ft 383 kts 15°
2026-05-07 16:14 40.34735 14.22486 21098 ft 380 kts 15°
2026-05-07 16:14 40.37218 14.23643 20658 ft 378 kts 15°
2026-05-07 16:15 40.39687 14.24794 20220 ft 376 kts 15°
2026-05-07 16:15 40.42116 14.25927 19788 ft 374 kts 16°
2026-05-07 16:15 40.44562 14.27071 19353 ft 372 kts 16°
2026-05-07 16:15 40.47001 14.28213 18933 ft 371 kts 17°
2026-05-07 16:16 40.49427 14.29351 18494 ft 369 kts 17°
2026-05-07 16:16 40.51841 14.30484 18040 ft 368 kts 17°
2026-05-07 16:16 40.54246 14.31612 17598 ft 365 kts 17°
2026-05-07 16:16 40.56609 14.32795 17211 ft 362 kts 25°
2026-05-07 16:17 40.58773 14.34401 17117 ft 350 kts 29°
2026-05-07 16:17 40.60875 14.35961 16826 ft 345 kts 27°
2026-05-07 16:17 40.62976 14.37493 16425 ft 345 kts 27°
2026-05-07 16:17 40.65077 14.39024 16020 ft 344 kts 27°
2026-05-07 16:18 40.67169 14.40543 15666 ft 343 kts 27°
2026-05-07 16:18 40.69222 14.42051 15155 ft 342 kts 28°
2026-05-07 16:18 40.71288 14.43594 14433 ft 341 kts 29°
2026-05-07 16:18 40.73346 14.45147 13790 ft 339 kts 29°
2026-05-07 16:19 40.75378 14.46691 13114 ft 335 kts 30°
2026-05-07 16:19 40.77378 14.48212 12472 ft 330 kts 30°
2026-05-07 16:19 40.79353 14.49710 11855 ft 324 kts 30°
2026-05-07 16:19 40.81294 14.51176 11230 ft 319 kts 30°
2026-05-07 16:20 40.83206 14.52621 10625 ft 314 kts 31°
2026-05-07 16:20 40.85086 14.54041 10027 ft 308 kts 31°
2026-05-07 16:20 40.86936 14.55436 9346 ft 305 kts 31°
2026-05-07 16:20 40.88775 14.56802 8657 ft 301 kts 27°
2026-05-07 16:21 40.90783 14.57390 7996 ft 297 kts 356°
2026-05-07 16:21 40.92712 14.56614 7363 ft 293 kts 334°
2026-05-07 16:21 40.94469 14.55307 6842 ft 286 kts 328°
2026-05-07 16:21 40.96061 14.53808 6356 ft 277 kts 315°
2026-05-07 16:22 40.97109 14.51741 5926 ft 266 kts 290°
2026-05-07 16:22 40.97422 14.49400 5547 ft 254 kts 266°
2026-05-07 16:22 40.97242 14.47863 5253 ft 249 kts 251°
2026-05-07 16:22 40.96502 14.45876 4765 ft 239 kts 237°
2026-05-07 16:23 40.95642 14.44052 4250 ft 228 kts 237°
2026-05-07 16:23 40.94815 14.42305 3642 ft 221 kts 237°
2026-05-07 16:23 40.93995 14.40623 3093 ft 212 kts 237°
2026-05-07 16:23 40.93198 14.39063 2595 ft 199 kts 236°
2026-05-07 16:24 40.92443 14.37570 2089 ft 190 kts 239°
2026-05-07 16:24 40.91808 14.36126 1710 ft 175 kts 242°
2026-05-07 16:24 40.91246 14.34730 1269 ft 169 kts 243°
2026-05-07 16:24 40.90670 14.33401 932 ft 164 kts 237°
2026-05-07 16:25 40.90044 14.32160 629 ft 158 kts 238°
2026-05-07 16:25 40.89486 14.30943 382 ft 152 kts 239°
2026-05-07 16:25 40.88938 14.29787 250 ft 142 kts 239°
2026-05-07 16:25 40.88496 14.28852 273 ft 85 kts 238°
2026-05-07 16:26 40.88340 14.28536 280 ft 25 kts 229°
2026-05-07 16:26 40.88213 14.28412 284 ft 14 kts 208°
2026-05-07 16:26 40.88161 14.28375 285 ft 4 kts 208°
2026-05-07 16:26 40.88144 14.28363 286 ft 2 kts 208°
2026-05-07 16:27 40.88117 14.28344 286 ft 5 kts 207°
2026-05-07 16:27 40.88097 14.28330 287 ft 2 kts 207°
2026-05-07 16:27 40.88083 14.28323 287 ft 4 kts 191°
2026-05-07 16:27 40.88058 14.28375 287 ft 9 kts 97°
2026-05-07 16:28 40.88050 14.28457 286 ft 9 kts 97°
2026-05-07 16:28 40.88028 14.28530 286 ft 8 kts 153°
2026-05-07 16:28 40.87985 14.28509 286 ft 6 kts 216°
2026-05-07 16:28 40.87960 14.28485 287 ft 5 kts 218°
2026-05-07 16:29 40.87938 14.28415 288 ft 10 kts 270°
2026-05-07 16:29 40.87945 14.28336 289 ft 7 kts 276°
2026-05-07 16:29 40.87950 14.28271 290 ft 9 kts 277°
2026-05-07 16:29 40.87958 14.28191 295 ft 8 kts 277°
2026-05-07 16:30 40.87960 14.28132 292 ft 7 kts 258°
2026-05-07 16:30 40.87929 14.28082 296 ft 5 kts 193°
2026-05-07 16:30 40.87899 14.28098 296 ft 6 kts 144°
2026-05-07 16:30 40.87871 14.28128 294 ft 1 kts 141°
2026-05-07 16:31 40.87866 14.28133 296 ft 0 kts 141°